User: anonymous   Login
Location: Unspecified
(0.0000°N, 0.0000°E)
Time: 07:24:53
(UTC+00:00)
Language:

MERIDIAN 3 - Orbit

View from above orbital plane
View from above orbital plane
View from above satellite
View from above satellite

Ground track
Ground track

The orbit data is extracted from the following two-line orbital elements,

1 37212U 10058A   20224.69579396 -.00000007  00000-0  00000+0 0  9990
2 37212  63.5935 295.3672 6822950 273.5102 344.0428  2.00597798 71611
Epoch (UTC): 11 August 2020 16:41:56
Eccentricity: 0.6822950
inclination: 63.5935°
perigee height: 2059 km
apogee height: 38299 km
right ascension of ascending node: 295.3672°
argument of perigee: 273.5102°
revolutions per day: 2.00597798
mean anomaly at epoch: 344.0428°
orbit number at epoch: 7161

The dashed part of the orbit path shows where the satellite is in the earth's shadow,  

DLR